Погода в Княжпогосте

Россия / Республика Коми     62°36′10″N   50°51′12″E
темп.,
°C
ветер,
м/с
пор.,
м/с
влажн.,
%
обл.,
%
осадки,
мм/ч
давл.,
гПа
погр.,
м
27 сентября, пн
пн2700:00+5вюв4795100 0.6 1023768
03:00+4в4996100 0.6 1025622
06:00+4в3895100 0.0 1027551
09:00+5в3780100 0.0 1028559
12:00+7в4661100 0.0 1030737
15:00+7в3556100 0.0 1031802
18:00+4в24745 0.0 103276
21:00+3юв237879 0.0 103352
28 сентября, вт
вт2800:00+1вюв11835 0.0 103410
03:000з008860 0.0 103410
06:000з118799 0.0 103410
09:00+5з1264100 0.0 1033313
12:00+8зсз235372 0.0 1032744
15:00+9сз2460100 0.0 1031827
18:00+7зсз2480100 0.0 1031115
21:00+6сз1492100 0.0 1031126
29 сентября, ср
ср2900:00+6с1395100 0.0 1031124
03:00+6с1398100 0.1 1031117
06:00+6с1398100 0.0 1031108
09:00+8ссв128484 0.0 1032404
12:00+10ссз1266100 0.0 1031964
15:00+10зсз236399 0.0 1031903
18:00+7з228193 0.0 103028
21:00+7зюз2582100 0.3 1029146
30 сентября, чт
чт3000:00+6зюз269157 0.0 1029145
03:00+5з279866 0.0 1028168
06:00+5зсз289764 0.0 1027224
09:00+9сз487710 0.0 1027484
12:00+11ссз467189 0.0 1027859
15:00+9ссз3882100 0.0 1027900
18:00+8ссз3885100 0.0 1027656
21:00+7ссз3787100 0.0 1028502
1 октября, пт
пт100:00+7сз2690100 0.0 1028354
03:00+7сз2592100 0.0 1028288
06:00+6ссз1494100 0.0 1028214
09:00+7ссз2389100 0.1 1029263
12:00+8ссз1283100 0.0 1030446
15:00+8сз1382100 0.0 1030440
18:00+7сз1288100 0.0 103049
21:00+7зсз1289100 0.0 103055